Tracking 19717 objects as of 24-Jun-2019
HD Live streaming from Space Station
objects crossing your sky now

DICE 1

Track DICE 1 now!
10-day predictions
DICE 1 is classified as:


NORAD ID: 37851
Int'l Code: 2011-061B
Perigee: 437.1 km
Apogee: 690.3 km
Inclination: 101.7 °
Period: 95.8 minutes
Semi major axis: 6934 km
RCS: 0.0809 m2 (small)
Launch date: October 28, 2011
Source: United States (US)
Launch site: AIR FORCE WESTERN TEST RANGE (AFWTR)
aabbcc
Your satellite tracking list
Your tracking list is empty




NASA's NSSDC Master Catalog

Two Line Element Set (TLE):
1 37851U 11061B   19175.16052033  .00000651  00000-0  41614-4 0  9998
2 37851 101.7356  67.6089 0182599  83.0315 279.1627 15.03348967417203
Source of the keplerian elements: AFSPC